Regional Weather Roundup
Issued by NWS

Home | Current Version | Previous Version | Graphics & Text | Print | Product List | Glossary On
Versions: 1 2 3 4 5 6 7 8 9 10 11 12 13 14 15 16 17 18 19 20 21 22 23 24 25 26 27 28 29 30 31 32 33 34 35 36 37 38 39 40 41 42 43 44 45 46 47 48 49 50
000
ASUS43 KDMX 261607
RWRIA

WEATHER ROUNDUP FOR IOWA
NATIONAL WEATHER SERVICE DES MOINES IA
1100 AM CDT TUE AUG 26 2014

NOTE: "FAIR" INDICATES FEW OR NO CLOUDS BELOW 12,000 FEET WITH NO
SIGNIFICANT WEATHER AND/OR OBSTRUCTIONS TO VISIBILITY.

* - THESE STATIONS ARE NOT NWS STATIONS...THUS NOT UNDER NWS
QUALITY CONTROL.  THEY ALSO DO NOT REPORT WEATHER SUCH
AS PRECIPITATION OR FOG.

IAZ001>003-012>014-020>022-031>034-043>046-261700-
   NORTHWEST IOWA

CITY           SKY/WX    TMP DP  RH WIND       PRES   REMARKS
CARROLL *      PTSUNNY   66  59  77 NE6       30.19R
CHEROKEE *     PTSUNNY   64  55  72 CALM      30.22R
DENISON *      PTSUNNY   66  61  82 NE8       30.18R
LE MARS *      CLOUDY    63  54  72 CALM      30.22R
ORANGE CITY *  CLOUDY    61  52  72 S3        30.23R
SHELDON *      PTSUNNY   61  54  77 NE9G16    30.16S
SIOUX CITY     CLOUDY    68  58  70 E5        30.20R
SPENCER        PTSUNNY   63  51  65 NE14      30.18R
STORM LAKE *   PTSUNNY   64  59  82 E6        30.20R
$$

IAZ055>058-069>071-079>083-090>094-261700-
   SOUTHWEST IOWA

CITY           SKY/WX    TMP DP  RH WIND       PRES   REMARKS
ATLANTIC *     CLOUDY    68  63  83 E6        30.19S
AUDUBON *      PTSUNNY   70  64  83 CALM      30.21R
CLARINDA *     CLOUDY    72  66  83 N5        30.19S
COUNCIL BLFS * PTSUNNY   70  66  88 NE9       30.18R
CRESTON *      CLOUDY    72  64  78 NE8       30.18R
HARLAN  *      CLOUDY    66  63  88 E3        30.24R
LAMONI         MOSUNNY   73  65  75 NE9       30.14R
RED OAK *      CLOUDY    70  64  83 E8G15     30.19R
SHENANDOAH *   CLOUDY    73  68  83 SE5       30.19R
$$

IAZ047>049-059>061-072>074-084-261700-
   CENTRAL IOWA

CITY           SKY/WX    TMP DP  RH WIND       PRES   REMARKS
AMES           MOSUNNY   72  62  71 NE7       30.15R
ANKENY *       SUNNY     72  63  73 E8        30.15R
CHARITON *     MOSUNNY   73  66  78 N9        30.15R
DES MOINES     PTSUNNY   74  63  68 E8        30.14F
GRINNELL*      MOSUNNY   71  62  74 NE6       30.16R
KNOXVILLE *    SUNNY     72  63  73 E10       30.13F
MARSHALLTOWN   MOSUNNY   69  61  75 N8        30.16R
PELLA *        SUNNY     75  63  64 E5        30.15S
PERRY *          N/A     70  61  73 NE3       30.18R
$$

IAZ004>006-015-016-023>025-035-036-261700-
   NORTH CENTRAL IOWA

CITY           SKY/WX    TMP DP  RH WIND       PRES   REMARKS
ALGONA *       PTSUNNY   63  54  72 N10       30.17S
CLARION *      SUNNY     66  55  68 CALM      30.18R
ESTHERVILLE    PTSUNNY   60  50  69 N15       30.17F
FORT DODGE *   PTSUNNY   64  57  77 CALM      30.20R
MASON CITY     PTSUNNY   67  55  65 N17       30.16R
FOREST CITY *    N/A     64  54  68 N15       30.15R
IOWA FALLS *     N/A     68  58  69 NE8       30.17S
$$

IAZ007>011-017>019-026>030-037>042-050>054-066-261700-
   NORTHEAST IOWA

CITY           SKY/WX    TMP DP  RH WIND       PRES   REMARKS
CEDAR RAPIDS   MOSUNNY   73  63  70 NE8       30.12R
CHARLES CITY * SUNNY     64  55  72 VRB3      30.16R
CLINTON *      CLOUDY    70  63  78 NE12      30.13F
DECORAH *      SUNNY     64  57  77 N8G21     30.10R
DUBUQUE        PTSUNNY   68  65  90 NE15      30.12F
MONTICELLO *   PTSUNNY   73  64  73 NE9       30.12R
OELWEIN *      CLOUDY    68  61  77 VRB6      30.16R
WATERLOO       PTSUNNY   71  58  63 N6        30.15R
$$

IAZ064-065-067-068-078-261700-
   EAST CENTRAL IOWA

CITY           SKY/WX    TMP DP  RH WIND       PRES   REMARKS
DAVENPORT      CLOUDY    72  64  76 NE15      30.12R
IOWA CITY      MOSUNNY   75  63  66 NE8       30.13R
MT. PLEASANT * PTSUNNY   77  64  63 NE7       30.12R
MUSCATINE *    SUNNY     77  63  61 NE14      30.11S
QUAD CITIES    PTSUNNY   75  66  73 NE9       30.11S
$$

IAZ062-063-075>077-085>089-095>099-261700-
   SOUTHEAST IOWA

CITY           SKY/WX    TMP DP  RH WIND       PRES   REMARKS
BURLINGTON     MOSUNNY   78  68  71 N10       30.11S HX  80
FAIRFIELD *    SUNNY     73  66  78 NE8       30.12S
FORT MADISON * SUNNY     81  68  65 NE7       30.12S HX  83
KEOKUK *       SUNNY     77  68  73 VRB3      30.11S
OSKALOOSA *      N/A     74  66  75 E8G16     30.13R
CENTERVILLE *  SUNNY     75  66  73 NE10G20   30.14S
OTTUMWA        MOSUNNY   75  65  70 E8        30.11R
WASHINGTON *   SUNNY     73  66  78 E7        30.12R
$$

ABBREVIATIONS USED IN REMARKS
   TC - TEMPERATURES IN CELSIUS
  WCI - WIND CHILL INDEX
   HX - HEAT INDEX
  VSB - VISIBILITY
$$



USA.gov is the U.S. government's official web portal to all federal, state and local government web resources and services.